Weather History for Keahole Point, HI

Change the Weather History Date:

Thursday, June 20, 2013

  Actual Average Record
Temperature  
Mean Temperature 78 °F -  
Max Temperature 82 °F 81 °F 91 °F (1986)
Min Temperature 73 °F 72 °F 68 °F (1991)
Cooling Degree Days 12    
Growing Degree Days 28 (Base 50)    
Moisture  
Dew Point 68 °F    
Average Humidity 69    
Maximum Humidity 82    
Minimum Humidity 56    
Precipitation  
Precipitation 0.02 in - - ()
Sea Level Pressure  
Sea Level Pressure 29.99 in    
Wind  
Wind Speed 7 mph (SW)    
Max Wind Speed 13 mph    
Max Gust Speed -    
Visibility 10 miles    
Events Rain    
Averages and records for this station are not official NWS values.
T = Trace of Precipitation, MM = Missing Value Source: NWS Daily Summary

Daily Weather History Graph

Daily Weather History Graph

Search for Another Location

Airport:

Trip Planner

Search our weather history database for the weather conditions in past years. The results will help you decide how hot, cold, wet, or windy it might be!

Date:

Astronomy

Jun. 20, 2013 Rise Set
Actual Time 5:46 AM HST 7:05 PM HST
Civil Twilight 5:21 AM HST 7:30 PM HST
Nautical Twilight 4:52 AM HST 7:59 PM HST
Astronomical Twilight 4:22 AM HST 8:29 PM HST
Moon 4:32 PM HST (6/20) 3:05 AM HST (6/20)
Length of Visible Light 14h 08m
Length of Day
13h 19m
Waxing Gibbous, 90% of the Moon is Illuminated
Jun 20
Waxing Gibbous
Jun 23
Full
Jun 29
Last Quarter
Jul 7
New
Jul 15
First Quarter

Hourly Weather History & Observations

Time (HST) Temp. Heat Index Dew Point Humidity Pressure Visibility Wind Dir Wind Speed Gust Speed Precip Events Conditions
12:03 AM 78.8 °F - 69.8 °F 74% 30.01 in 10.0 mi South 5.8 mph - 0.00 in Rain Light Rain
12:53 AM 78.1 °F - 70.0 °F 76% 30.00 in 10.0 mi West 9.2 mph - 0.00 in   Overcast
1:01 AM 78.8 °F - 69.8 °F 74% 29.99 in 10.0 mi West 10.4 mph - N/A   Overcast
1:53 AM 75.9 °F - 70.0 °F 82% 29.98 in 10.0 mi SSE 4.6 mph - N/A   Overcast
2:31 AM 77.0 °F - 69.8 °F 78% 29.97 in 10.0 mi WSW 8.1 mph - N/A   Overcast
2:53 AM 78.1 °F - 69.1 °F 74% 29.97 in 10.0 mi WSW 8.1 mph - N/A   Overcast
3:20 AM 78.8 °F - 68.0 °F 69% 29.97 in 10.0 mi WSW 5.8 mph - N/A   Overcast
3:31 AM 78.8 °F - 68.0 °F 69% 29.96 in 10.0 mi WSW 6.9 mph - N/A   Overcast
3:53 AM 78.1 °F - 68.0 °F 71% 29.96 in 10.0 mi West 6.9 mph - N/A   Overcast
4:14 AM 75.2 °F - 68.0 °F 78% 29.96 in 10.0 mi Variable 5.8 mph - N/A   Overcast
4:53 AM 73.0 °F - 66.0 °F 79% 29.97 in 10.0 mi ENE 12.7 mph - 0.01 in Rain Light Rain
5:28 AM 73.4 °F - 66.2 °F 78% 29.97 in 10.0 mi ENE 8.1 mph - 0.01 in Rain Light Rain
5:53 AM 73.0 °F - 66.0 °F 79% 29.97 in 10.0 mi East 6.9 mph - 0.01 in   Overcast
6:53 AM 75.0 °F - 68.0 °F 79% 29.99 in 10.0 mi Calm Calm - N/A   Overcast
7:53 AM 78.1 °F - 66.9 °F 68% 30.00 in 10.0 mi Calm Calm - N/A   Overcast
8:53 AM 79.0 °F - 66.9 °F 66% 30.01 in 10.0 mi SW 5.8 mph - N/A   Partly Cloudy
9:53 AM 80.1 °F 82.3 °F 66.9 °F 64% 30.01 in 10.0 mi WSW 6.9 mph - N/A   Scattered Clouds
10:53 AM 81.0 °F 83.3 °F 66.9 °F 62% 30.01 in 10.0 mi WSW 8.1 mph - N/A   Clear
11:53 AM 82.0 °F 84.9 °F 68.0 °F 62% 30.00 in 10.0 mi WSW 9.2 mph - N/A   Clear
12:53 PM 82.0 °F 84.5 °F 66.9 °F 60% 29.99 in 10.0 mi WSW 9.2 mph - N/A   Scattered Clouds
1:53 PM 82.0 °F 84.9 °F 68.0 °F 62% 29.98 in 10.0 mi SSW 10.4 mph - N/A   Mostly Cloudy
2:53 PM 82.9 °F 85.8 °F 68.0 °F 60% 29.98 in 10.0 mi SSW 9.2 mph - N/A   Overcast
3:53 PM 82.9 °F 85.4 °F 66.9 °F 58% 29.97 in 10.0 mi SSW 12.7 mph - N/A   Mostly Cloudy
4:53 PM 82.9 °F 85.8 °F 68.0 °F 60% 29.97 in 10.0 mi SSW 11.5 mph - N/A   Scattered Clouds
5:53 PM 82.0 °F 84.9 °F 68.0 °F 62% 29.97 in 10.0 mi South 10.4 mph - N/A   Mostly Cloudy
6:53 PM 80.1 °F 82.7 °F 68.0 °F 67% 29.99 in 10.0 mi South 9.2 mph - N/A   Mostly Cloudy
7:53 PM 80.1 °F 82.7 °F 68.0 °F 67% 30.01 in 10.0 mi South 6.9 mph - N/A   Overcast
8:53 PM 79.0 °F - 68.0 °F 69% 30.03 in 10.0 mi SSW 4.6 mph - N/A   Overcast
9:53 PM 79.0 °F - 68.0 °F 69% 30.04 in 10.0 mi SW 5.8 mph - N/A   Overcast
10:53 PM 78.1 °F - 69.1 °F 74% 30.05 in 10.0 mi SSE 4.6 mph - N/A   Overcast
11:53 PM 79.0 °F - 62.1 °F 56% 30.03 in 10.0 mi Variable 3.5 mph - N/A   Mostly Cloudy